STARLINK-30559, 58039

Orbit data source: Space-Track

STARLINK-30559, 58039 is a payload satellite owned by SpaceX/Seattle (US) in LEO that was launched on Mon, 09 Oct 2023 UTC via an FALCON 9 launch vehicle from the Air Force Western Test Range (AFWTR). Payload-class satellites include a variety of spacecraft equipped with specific instruments for various scientific and technological missions. These include communications satellites like Starlink; space stations such as the ISS; scientific satellites like the Hubble; Earth observation satellites from companies like Planet Labs, Umbra, and HawkEye 360; GPS; miniature CubeSats for education and research; and military/defense satellites.

Loading next visibility...
Identifier
58039, 2023-156M
Orbit
LEO
Country
Flag of USUS
Related business
Manufacturer
SpaceX/Seattle
Mission
Partially operational Commercial Communications
Bus & Motor
STARLINK V2M, Unknown motor
Mass
730 kg wet, ~700 kg dry
Launch date (UTC)
2023-10-09 (2 years ago)
Launch vehicle
FALCON 9
Launch site
Air Force Western Test Range (AFWTR)
Object type
Payload
Rocket body
Debris
Shape & HBR
Box + 2 Pan, 17.7 m
Radar Cross Section
33.884 m², Large (>1 m²)

Expand to show TLE details & history
Last TLE update: 19 hours ago

TLE from 19 hours ago
0 STARLINK-30559
1 58039U 23156M   25348.91668981  .00052451  00000-0  15008-2 0  9995
2 58039  53.1607 210.9747 0012044 157.0160 274.1800 15.35402707  5854
Epoch: 2025-12-14T22:00Z
TLE epoch observation values (Epoch: 2025-12-14T22:00:01.999Z)
Latitude
49.34749°
Longitude
-142.67366°
Altitude
464.804 km
Speed
7.64 km/s
True Right ascension
18h 04m 37s
True Declination
49° 10' 12"
Sunlit
Object was in daylight at epoch
Visualization orbit readout
Latitude
Unknown
Longitude
Unknown
Altitude
Unknown
Speed
Unknown
Apparent Right ascension
Unknown
Apparent Declination
Unknown
Sunlit
N/A
Visualization observer readout
Local Sidereal Time
15:11:06
Azimuth
Unknown
Elevation
Unknown
Doppler factor
Unknown
Orbital elements
Apogee altitude
468.217 km
Perigee altitude
451.746 km
Semi-major axis
6,838.118 km
Eccentricity
0.0012
Inclination
53.1607°
RAAN
210.9747°
Arg. of periapsis
157.016°
True anomaly
274.04234°
Mean anomaly
274.18°
Eccentric anomaly
274.11117°
Mean motion
3.83829 °/min
Orbital period
93.79 mins
BSTAR
0.0015008
Loading maneuver chart data...
Computing Atmospheric mass density...
Loading historical data...
Loading historical data...
Loading historical data...
Loading historical data...
Loading historical data...
Loading historical data...
Loading historical data...

Documentation

Showing up to 5 results
|